ROMMA est une association bénévole à but non lucratif. Votre soutien est indispensable : ADHERER à ROMMA ou FAIRE un DON

Le Versoud - (38, Isère)

Vallée du Grésivaudan (220 m)   Longitude: 05° 51' 44" E   Latitude: 45° 13' 06" N Station partenaire n°6
 

Détail journalier du     <<     >>

Température Humidité Pression Vent Dir Rafale Dir. rafale Ensol.
Heure (°C) (%) (hPa) (km/h) (km/h) (min)
01:00 17.885101400---0
02:00 17.085101400---0
03:00 16.287101400---0
04:00 15.886101400---0
05:00 15.384101400---0
06:00 14.688101500---0
07:00 14.588101500---0
08:00 17.377101500---35
09:00 19.965101500---60
10:00 21.559101502O60
11:00 23.651101402O60
12:00 24.851101402SSO60
13:00 27.141101302OSO60
14:00 28.838101302OSO55
15:00 29.133101206O55
16:00 31.232101206O60
17:00 31.8331011010SSO55
18:00 30.14310111S10S30
19:00 30.23710121SSE11E55
20:00 28.7411012010NNO25
21:00 26.055101200---30
22:00 25.250101302NO0
23:00 22.958101300---0
minuit 22.361101402NO0

Graphique du 12-07-2019

 

Serveur OMMA